Погода Нижняя Пеша

Погода Нижняя Пеша : погода сейчас, прогноз погоды и архив. Всё, что Вы хотите узнать о погоде Нижняя Пеша!

Поиск расширенной информации на нашем сайте:

Другие новости

Новости СМИ2

Главная страница сайта

Новости сайта

03.07.2017

Напоминаем, что на нашем специализированном сайте Метеоцентр.Азия вы можете получить высокодетализированные автоматические прогнозы погоды по пунктам России, СНГ и мира в авиационном формате (включающие направление и скорость ветра, видимость, явления погоды, количество и форму облачности, нижнюю и верхнюю границу облачности).


Погода Нижняя Пеша - сегодня

Время (UTC), дата Ветер
(°,м/с) 
Видим.   Явления Облачность Т
(°С)
Тd
(°С)
f(%) Тe
(°С)
Pmin
(гПа)
dP
(гПа)
Po
(мм)
O2
(г/м3)
Тmin Tmax R s Состояние
почвы
03 19.07.18 020 (С) 20000 м    ясно 
+13.3 +11.2 87 +17  1023.6  0.8  767  292  +9         
06 19.07.18 040 (СВ) 20000 м    ясно 
+19.5 +12.8 65 +26  1023.7  0.1  767  286           
09 19.07.18 070 (В) 20000 м    ясно 
+22.8 +11.9 50 +26  1023.3  -0.4  766  283           
12 19.07.18 060 (СВ) 20000 м    1/0 верхняя 
[Ci fib]
+24 +11.2 45 +26  1023.2  -0.1  766  282           
18 19.07.18 060 (СВ) 20000 м    1/0 верхняя 
[Ci fib]
+21.2 +14.8 67 +29  1023  766  283           
21 19.07.18 070 (В) 20000 м    1/0 верхняя 
[Ci fib]
+15.8 +13.6 87 +23  1023.8  0.8  767  289           
00 20.07.18 110 (В) 20000 м    1/0 верхняя 
[Ci fib]
+14 +12.3 89 +19  1024.8  767  292           
03 20.07.18 150 (ЮВ) 20000 м    1/0 верхняя 
[Ci fib]
+16.5 +14.4 87 +24  1025.3  0.5  768  289  +14         
06 20.07.18 130 (ЮВ) 20000 м    1/0 верхняя 
[Ci fib]
+22.6 +12.6 53 +27  1025.6  0.3  768  283           
09 20.07.18 070 (В) 20000 м    3/0 верхняя 
[Ci fib]
+25.1 +12.2 45 +29  1024.5  -1.1  767  281           
12 20.07.18 130 (ЮВ) 20000 м    3/0 верхняя 
[Ci fib]
+26.6 +11.9 40 +30  1023.8  -0.7  767  279           
18 20.07.18 110 (В) 20000 м    10/0 верхняя 
[Cs]
+22.7 +15.9 65 +32  1022.2  -0.4  765  281           
21 20.07.18 100 (В) 20000 м    10/0 верхняя 
[Cs]
+16.7 +13.5 81 +24  1022.6  0.4  766  288           
00 21.07.18 120 (ЮВ) 20000 м    10/0 верхняя 
[Cs]
+15.4 +12.5 83 +20  1023.3  0.7  766  290           
03 21.07.18 160 (Ю) 20000 м    3/0 верхняя 
[Ci fib]
+18.9 +11.7 63 +23  1022.5  -0.8  766  286  +15         
06 21.07.18 170 (Ю) 20000 м    ясно 
+25 +12.3 45 +29  1021.5  -1  765  280           
15 21.07.18 170 (Ю) 20000 м    ясно 
+28.2 +10.6 33 +30  1019  -0.6  763  277    +28.2       
18 21.07.18 140 (ЮВ) 20000 м    ясно 
+22.3 +16.4 69 +33  1018.4  -0.6  763  281           
21 21.07.18 160 (Ю) 20000 м    3/0 средняя 
[Ac cast]
+17.1 +13.2 78 +23  1018  -0.4  762  286           
03 22.07.18 170 (Ю) 20000 м    ясно 
+17.2 +13.3 78 +23  1018.8  0.3  763  287  +16.7         
06 22.07.18 180 (Ю) 20000 м    ясно 
+23.6 +12.6 50 +28  1018.5  -0.3  763  280           
09 22.07.18 190 (Ю) 20000 м    ясно 
[Cu med, cong]
+26.9 +11.1 37 +29  1017.7  -0.8  762  278           
12 22.07.18 190 (Ю) 20000 м    ясно 
+27.2 +10.9 36 +29  1016.9  -0.8  761  277           
15 22.07.18 220 (ЮЗ) 20000 м    ясно 
+27 +10.5 36 +29  1015.9  -1  761  277    +28       
18 22.07.18 150 (ЮВ) 20000 м    ясно 
+22.2 +15 64 +30  1015.8  -0.1  761  280           
Время (UTC), дата Ветер
(°,м/с) 
Видим.   Явления Облачность Т
(°С)
Тd
(°С)
f(%) Тe
(°С)
Pmin
(гПа)
dP
(гПа)
Po
(мм)
O2
(г/м3)
Тmin Tmax R s Состояние
почвы

Для получения пояснительной информации подведите курсор к названию столбца.

ПОГОДА Нижняя Пеша - архив

Всё, что Вы хотите узнать о погоде Нижняя Пеша - удобно и подробно!

Выберите нужную дату (начиная с 1 января 2015* года) и нажмите кнопку "Найти".
Будут отображены архивные сводки погоды по пункту Нижняя Пеша, начиная с указанной даты.


Отображать данные в формате CSV (для использования в таблицах Excel)


Внимание! Наш архив погоды предназначен исключительно для личного некоммерческого использования в познавательных целях. Если Вам необходимы официальные справки о состоянии погоды (для производственных, юридических, коммерческих и т.п. целей), обращайтесь в органы Росгидромета.

*Примечание: данная дата относится к архиву по метеостанциям СССР (Россия, СНГ, Балтия).
Архив по метеостанциям Зарубежной Европы и Азии (кроме Китая) хранится 10 дней, по другим регионам земного шара (Китай, Африка, Америка, Австралия, Океания) - 1 день.

Нижняя Пеша - район местоположения метеостанции


Название, широта, долгота, высота метеостанции:
Нижняя Пеша 66.8°ш. 47.8°д. 9 м над ур. моря [Российская Федерация]

Дополнительная информация

В oтличие oт бoльшинства пoгoдных сайтoв мы публикуем пoдрoбную метеoинфoрмацию в детальнoм прoфессиoнальнoм фoрмате.

Характеристики температуры и влажнoсти вoздуха измеряются на высoте 2 м в тени вдали oт зданий и деревьев.
Скoрoсть ветра измеряется на высoте 10 м (на урoвне рoста челoвека скoрoсть ветра ниже в 1.5-2 раза). Если метеoстанция нахoдится в гoрoде или в лесу, тo скoрoсть ветра занижена на 2-4 м/с пo сравнению с oткрытым местoм. Скoрoсть ветра над акватoриями крупных рек и oзёр, а также на вершинах хoлмoв на 2-5 м/с выше, чем в oбычных услoвиях.
Атмoсфернoе давление в разных тoчках местнoсти мoжет значительнo oтличаться oт давления на метеoстанции, в зависимoсти oт услoвий рельефа (при пoдъёме на 10 м давление пoнижается примернo на 1 мм рт.ст.).